SCP
0 0 0 0 0 0 0 0 0 0 0 0 0 0 0 0 0 0 0 0 0 0 0 0 0 0 0 0 0 0 0 0 0 0 0 0 0 0 0 0 0 0 0
0 0 0 0 0 0 0 0 0 0 0 0 0 0 0 0 0 0 0 0 0 0 0 0 0 0 0 0 0 0 0 0 0 0 0 0 0 0 0 0 0 0 0
0 0 0 0 0 0 0 0 0 0 0 0 0 0 0 0 0 0 0 0 0 0 0 0 0 0 0 0 0 0 0 0 0 0 0 0 0 0 0 0 0 0 0
0 0 0 0 0 0 0 0 0 0 0 0 0 0 0 0 0 0 0 0 0 0 0 0 0 0 0 0 0 0 0 0 0 0 0 0 0 0 0 0 0 0 0
0 0 0 0 0 0 0 0 0 0 0 0 0 0 0 0 0 0 0 0 0 0 0 0 0 0 0 0 0 0 0 0 0 0 0 0 0 0 0 0 0 0 0
0 0 0 0 0 0 0 0 0 0 0 0 0 0 0 0 0 0 0 0 0 0 0 0 0 0 0 0 0 0 0 0 0 0 0 0 0 0 0 0 0 0 0
0 0 0 0 0 0 0 0 0 0 0 0 0 0 0 0 0 0 0 0 0 0 0 0 0 0 0 0 0 0 0 0 0 0 0 0 0 0 0 0 0 0 0
0 0 0 0 0 0 0 0 0 0 0 0 0 0 0 0 0 0 0 0 0 0 0 0 0 0 0 0 0 0 0 0 0 0 0 0 0 0 0 0 0 0 0
0 0 0 0 0 0 0 0 0 0 0 0 0 0 0 0 0 0 0 0 0 0 0 0 0 0 0 0 0 0 0 0 0 0 0 0 0 0 0 0 0 0 0
0 0 0 0 0 0 0 0 0 0 0 0 0 0 0 0 0 0 0 0 0 0 0 0 0 0 0 0 0 0 0 0 0 0 0 0 0 0 0 0 0 0 0
0 0 0 0 0 0 0 0 0 0 0 0 0 0 0 0 0 0 0 0 0 0 0 0 0 0 0 0 0 0 0 0 0 0 0 0 0 0 0 0 0 0 0
0 0 0 0 0 0 0 0 0 0 0 0 0 0 0 0 0 0 0 0 0 0 0 0 0 0 0 0 0 0 0 0 0 0 0 0 0 0 0 0 0 0 0
0 0 0 0 0 0 0 0 0 0 0 0 0 0 0 0 0 0 0 0 0 0 0 0 0 0 0 0 0 0 0 0 0 0 0 0 0 0 0 0 0 0 0
0 0 0 0 0 0 0 0 0 0 0 0 0 0 0 0 0 0 0 0 0 0 0 0 0 0 0 0 0 0 0 0 0 0 0 0 0 0 0 0 0 0 0
0 0 0 0 0 0 0 0 0 0 0 0 0 0 0 0 0 0 0 0 0 0 0 0 0 0 0 0 0 0 0 0 0 0 0 0 0 0 0 0 0 0 0
0 0 0 0 0 0 0 0 0 0 0 0 0 0 0 0 0 0 0 0 0 0 0 0 0 0 0 0 0 0 0 0 0 0 0 0 0 0 0 0 0 0 0
0 0 0 0 0 0 0 0 0 0 0 0 0 0 0 0 0 0 0 0 0 0 0 0 0 0 0 0 0 0 0 0 0 0 0 0 0 0 0 0 0 0 0
0 0 0 0 -0 -0 0 0 0 0 0 0 0 0 0 0 0 0 0 0 0 0 0 0 0 0 0 0 0 0 0 0 0 0 0 0 0 0 0 0 0 0 0
-0 0 0 0 0 0 -0 -0 -0 0 0 0 0 0 0 0 0 0 0 0 0 0 0 0 0 0 0 0 0 0 0 0 0 0 0 0 0 0 0 0 0 0 0
-0 -0 -0 0 0 0 0 0 0 -0 0 0 0 0 0 0 0 0 0 0 0 0 0 0 0 0 0 0 0 0 0 0 0 0 0 0 0 0 0 0 0 0 0
-0 -0 -0 -0 0 0 0 0 0 0 0 0 0 0 0 0 0 0 0 0 0 0 0 0 0 0 0 0 0 0 0 0 0 0 0 0 0 0 0 0 0 0 0
-0 -0 -0 -0 -0 0 -0 0 0 0 0 0 0 0 0 0 0 0 0 0 0 0 0 0 0 0 0 0 0 0 0 0 0 0 0 0 0 0 0 0 0 0 0
0 -0 -0 -0 -0 0 -0 0 0 0 0 0 0 0 0 0 0 0 0 0 0 0 0 0 0 0 0 0 0 0 0 0 0 0 0 0 0 0 0 0 0 0 0
0 0 0 0 0 0 -0 -0 0 0 0 0 0 0 0 0 0 0 0 0 0 0 0 0 0 0 0 0 0 0 0 0 0 0 0 0 0 0 0 0 0 0 0
0 0 0 0 0 0 0 0 0 0 0 0 0 0 0 0 0 0 0 0 0 0 0 0 0 0 0 0 0 0 0 0 0 0 0 0 0 0 0 0 0 0 0
0 0 0 0 0 0 0 0 0 0 0 0 0 0 0 0 0 0 0 0 0 0 0 0 0 0 0 0 0 0 0 0 0 0 0 0 0 0 0 0 0 0 0
Wind_Speed_500mb
61 61 54 50 48 47 47 45 40 36 33 29 26 24 22 21 20 20 17 18 19 20 21 22 20 19 13 10 16 15 15 9 8 9 13 14 11 12 12 12 13 19 27
64 62 57 57 54 52 52 49 44 41 38 36 33 31 28 26 24 23 21 20 20 20 20 21 18 10 21 26 16 15 19 12 14 13 14 14 15 17 15 16 16 17 20
66 62 60 61 59 57 56 53 52 50 47 43 41 39 35 32 30 27 25 24 23 23 24 23 18 21 29 34 25 18 21 10 13 11 12 14 18 18 17 16 16 17 19
66 65 66 65 63 63 60 58 58 56 52 49 48 44 40 37 35 32 29 27 27 26 26 27 25 28 31 32 13 18 21 12 14 13 15 19 21 17 15 17 17 16 17
64 66 69 68 67 69 66 63 61 57 57 54 52 49 46 42 39 38 34 31 32 32 29 28 28 37 43 31 18 25 31 16 17 15 19 22 21 19 18 16 16 15 16
68 66 71 72 72 73 70 68 64 62 59 55 53 51 50 49 47 43 39 38 36 38 33 34 38 42 39 35 30 31 30 26 25 21 25 23 23 22 22 21 21 21 21
68 66 69 74 77 79 74 68 66 65 64 61 58 56 56 55 51 50 45 45 41 40 39 40 42 44 44 44 38 34 35 34 33 29 28 26 24 24 24 23 24 25 25
62 66 64 72 78 81 79 76 74 72 71 71 68 59 44 55 57 56 55 53 49 46 47 46 47 46 46 45 43 42 38 41 37 32 27 26 26 25 24 23 23 22 23
58 63 64 64 73 80 81 81 80 80 82 82 80 64 25 33 37 53 60 59 59 55 51 51 53 50 48 48 45 47 47 43 39 33 31 29 27 25 24 23 22 23 23
40 52 60 64 65 75 81 81 82 84 84 86 83 81 80 54 35 30 48 60 65 64 58 57 58 54 52 52 50 49 46 40 38 38 34 31 28 26 25 25 24 25 26
36 34 40 50 56 64 75 80 84 88 91 92 94 92 87 77 62 57 49 52 57 60 60 62 58 57 57 55 53 50 43 43 40 37 35 33 31 29 28 27 27 27 29
27 31 31 38 49 54 63 70 77 86 90 93 97 96 99 94 90 71 60 59 58 59 61 63 63 63 63 61 57 54 46 46 44 42 39 36 33 32 30 29 29 30 32
25 30 31 31 36 43 53 62 69 77 85 91 95 101 99 100 98 93 87 64 60 63 61 64 65 70 69 68 65 60 51 48 49 46 43 39 37 34 32 31 32 33 33
22 26 32 39 42 41 41 48 60 69 76 85 91 97 103 104 101 102 98 88 70 68 72 72 70 73 73 74 71 66 58 53 53 49 47 42 38 36 34 34 35 36 37
31 30 27 32 37 44 47 45 51 59 69 78 85 89 98 105 106 104 104 102 88 74 83 83 78 73 70 74 75 73 65 59 58 55 52 47 42 39 38 38 39 40 40
40 38 37 36 35 34 41 49 54 55 62 71 78 86 89 97 104 109 108 107 106 96 95 83 79 78 74 72 75 75 68 65 65 60 57 53 49 46 45 43 42 40 41
47 49 49 48 44 43 42 43 49 57 63 67 70 78 86 88 96 103 111 111 109 102 103 91 87 79 76 75 75 77 73 74 70 65 64 59 55 53 50 46 43 42 41
40 49 55 58 57 55 49 47 49 52 60 69 73 76 81 80 90 97 104 114 114 111 109 98 91 95 90 80 78 78 81 78 74 73 73 65 62 57 53 47 43 42 43
61 56 55 56 61 63 62 56 53 51 56 65 72 77 82 82 87 88 99 112 116 113 112 113 100 97 95 88 87 84 83 83 82 81 79 72 68 62 56 49 46 45 45
78 77 74 70 65 64 66 66 63 62 58 60 65 73 80 82 88 89 92 104 108 114 113 112 111 109 108 101 95 92 92 92 89 90 88 80 74 69 62 54 52 49 47
89 91 93 92 89 84 76 72 73 73 73 71 68 70 74 77 83 90 93 97 104 111 113 110 114 113 118 112 112 106 100 93 97 95 93 87 83 77 69 61 57 53 51
95 98 99 101 102 101 101 95 89 89 86 84 84 78 77 80 79 81 92 99 101 109 115 108 108 123 126 129 120 116 105 104 102 101 96 92 88 81 74 68 62 59 56
102 108 112 116 118 116 113 113 113 109 106 103 98 93 86 84 82 84 85 91 100 111 116 110 120 123 120 131 127 121 117 109 110 104 96 99 94 87 79 72 66 64 57
120 124 125 124 125 129 129 126 123 116 117 117 112 106 100 94 89 85 85 90 93 102 119 122 121 119 112 113 119 119 123 116 110 104 92 94 90 92 82 76 72 66 60
122 128 131 133 135 140 134 133 118 106 112 126 125 116 111 106 97 87 84 89 94 100 99 111 122 114 110 103 109 97 109 111 109 109 100 92 88 84 82 78 72 67 61
114 112 119 128 133 140 143 132 105 94 99 115 121 120 117 113 104 90 81 88 92 104 102 96 101 110 110 105 111 112 109 115 114 88 112 96 85 80 65 78 72 67 63
Wind_Direction_500mb
242 243 242 241 240 237 233 233 229 231 234 237 240 243 247 253 259 266 264 263 261 259 257 255 258 259 260 194 214 253 270 295 258 243 248 256 255 247 239 232 235 236 239
247 242 239 240 240 241 238 238 234 233 235 236 239 243 247 251 255 260 266 265 265 263 258 255 251 229 195 194 205 248 281 283 269 260 247 244 234 233 227 223 219 221 225
245 243 241 240 241 241 238 237 234 233 235 236 238 240 242 246 249 253 259 264 264 260 256 249 228 194 206 213 242 250 275 264 262 251 243 239 232 233 225 224 226 224 228
246 246 242 241 243 244 244 240 236 235 236 237 238 239 241 244 247 251 254 257 258 255 254 251 241 206 224 247 230 205 250 274 259 242 237 232 240 245 233 229 230 228 234
250 248 246 243 243 245 245 244 241 238 240 238 239 239 241 243 246 249 252 255 258 260 253 245 231 224 239 257 256 235 256 272 263 254 254 255 259 259 257 252 251 250 248
255 249 247 246 243 243 244 244 243 240 240 240 241 241 243 245 245 248 249 251 251 254 251 244 235 236 241 248 246 244 261 266 262 260 260 263 263 263 261 258 255 253 253
259 255 249 246 246 246 247 246 243 238 236 235 236 241 242 244 246 248 249 251 251 252 252 245 241 236 236 240 242 249 255 261 261 258 260 259 258 254 255 256 255 255 258
257 261 255 250 248 248 246 243 241 238 235 236 234 237 243 246 246 246 248 250 252 250 249 246 244 239 238 242 244 245 248 255 263 264 267 266 263 261 258 257 259 260 262
253 260 264 257 252 252 251 249 245 242 239 236 237 230 213 231 241 243 243 247 250 249 248 246 244 242 240 242 244 247 251 258 264 266 259 251 249 251 257 265 272 275 276
266 263 265 264 259 257 256 254 251 248 245 240 236 234 233 240 224 224 238 241 244 247 247 246 245 244 240 241 244 249 256 261 259 260 259 257 256 258 261 266 272 276 278
288 281 272 266 265 259 259 258 257 252 249 247 244 243 235 235 238 241 241 237 237 242 243 245 245 243 240 241 249 250 253 253 253 252 252 253 254 256 260 263 267 271 273
299 299 289 273 265 264 262 263 261 259 257 254 251 246 245 237 234 233 238 244 247 247 248 248 247 246 243 242 248 250 249 250 250 248 245 246 252 256 261 264 263 265 267
315 313 306 296 283 272 267 265 264 262 260 257 254 254 251 247 249 248 245 245 246 242 242 246 248 247 245 242 245 246 246 248 247 245 245 247 249 252 255 259 262 263 264
322 297 291 298 299 292 279 269 265 264 263 262 259 256 256 253 249 248 248 244 240 244 246 247 250 250 249 245 245 245 243 242 242 241 243 245 248 250 251 253 255 257 261
346 342 319 293 288 292 291 281 272 266 264 265 264 260 256 257 256 252 250 249 243 241 244 246 245 251 250 249 246 244 243 241 240 236 235 239 244 248 251 253 257 259 259
345 341 335 332 324 299 287 287 283 276 269 265 265 265 262 257 255 255 252 250 249 244 250 253 253 255 255 251 247 244 240 241 240 236 233 236 238 242 248 252 255 257 260
337 339 340 338 332 324 316 296 286 285 277 271 266 265 265 264 261 256 254 253 249 244 247 250 253 253 250 247 246 243 238 237 239 235 234 236 237 240 245 250 254 257 259
327 330 331 332 333 332 325 314 305 291 282 278 274 269 267 265 261 260 257 254 252 248 245 242 246 248 247 246 247 244 239 236 237 232 232 237 240 242 245 250 255 257 258
332 331 325 320 320 322 324 325 318 307 296 283 276 272 270 266 263 259 256 254 254 253 249 244 240 243 246 243 242 238 237 236 235 234 233 234 239 241 243 245 248 251 254
322 321 319 317 315 312 311 313 314 314 309 298 289 278 272 266 262 261 257 255 254 254 251 246 240 239 242 242 239 236 233 231 232 233 233 232 237 239 240 242 244 247 250
315 315 314 312 311 309 306 304 303 305 306 305 300 292 284 273 265 261 259 256 253 250 250 244 241 236 236 232 232 234 233 235 235 234 232 231 234 237 236 237 241 243 247
309 308 306 306 305 305 305 303 301 300 298 298 298 297 294 287 278 263 256 253 253 251 246 242 238 237 239 238 237 236 233 229 230 231 230 231 235 236 235 233 237 238 241
301 300 300 300 298 297 296 297 297 296 294 293 292 292 293 290 286 279 265 255 250 249 251 248 243 243 240 241 238 236 234 235 237 238 231 233 232 235 233 234 233 234 234
299 297 295 292 290 289 290 290 290 290 289 288 287 288 288 287 286 281 277 265 255 251 246 244 245 249 246 250 249 248 247 245 238 236 232 229 230 232 230 230 228 229 231
294 293 293 292 291 289 286 285 287 284 282 282 283 283 283 283 281 282 275 271 267 259 252 248 246 244 246 244 249 241 237 231 228 230 227 227 225 225 224 223 224 226 226
286 286 286 285 286 286 286 285 285 282 279 278 278 277 277 277 279 277 270 266 264 265 257 246 242 242 240 240 240 243 240 237 231 225 227 218 219 215 213 220 220 221 222
Wind_Speed_850mb
61 61 54 50 48 47 47 45 40 36 33 29 26 24 22 21 20 20 17 18 19 20 21 22 20 19 13 10 16 15 15 9 8 9 13 14 11 12 12 12 13 19 27
64 62 57 57 54 52 52 49 44 41 38 36 33 31 28 26 24 23 21 20 20 20 20 21 18 10 21 26 16 15 19 12 14 13 14 14 15 17 15 16 16 17 20
66 62 60 61 59 57 56 53 52 50 47 43 41 39 35 32 30 27 25 24 23 23 24 23 18 21 29 34 25 18 21 10 13 11 12 14 18 18 17 16 16 17 19
66 65 66 65 63 63 60 58 58 56 52 49 48 44 40 37 35 32 29 27 27 26 26 27 25 28 31 32 13 18 21 12 14 13 15 19 21 17 15 17 17 16 17
64 66 69 68 67 69 66 63 61 57 57 54 52 49 46 42 39 38 34 31 32 32 29 28 28 37 43 31 18 25 31 16 17 15 19 22 21 19 18 16 16 15 16
68 66 71 72 72 73 70 68 64 62 59 55 53 51 50 49 47 43 39 38 36 38 33 34 38 42 39 35 30 31 30 26 25 21 25 23 23 22 22 21 21 21 21
68 66 69 74 77 79 74 68 66 65 64 61 58 56 56 55 51 50 45 45 41 40 39 40 42 44 44 44 38 34 35 34 33 29 28 26 24 24 24 23 24 25 25
62 66 64 72 78 81 79 76 74 72 71 71 68 59 44 55 57 56 55 53 49 46 47 46 47 46 46 45 43 42 38 41 37 32 27 26 26 25 24 23 23 22 23
58 63 64 64 73 80 81 81 80 80 82 82 80 64 25 33 37 53 60 59 59 55 51 51 53 50 48 48 45 47 47 43 39 33 31 29 27 25 24 23 22 23 23
40 52 60 64 65 75 81 81 82 84 84 86 83 81 80 54 35 30 48 60 65 64 58 57 58 54 52 52 50 49 46 40 38 38 34 31 28 26 25 25 24 25 26
36 34 40 50 56 64 75 80 84 88 91 92 94 92 87 77 62 57 49 52 57 60 60 62 58 57 57 55 53 50 43 43 40 37 35 33 31 29 28 27 27 27 29
27 31 31 38 49 54 63 70 77 86 90 93 97 96 99 94 90 71 60 59 58 59 61 63 63 63 63 61 57 54 46 46 44 42 39 36 33 32 30 29 29 30 32
25 30 31 31 36 43 53 62 69 77 85 91 95 101 99 100 98 93 87 64 60 63 61 64 65 70 69 68 65 60 51 48 49 46 43 39 37 34 32 31 32 33 33
22 26 32 39 42 41 41 48 60 69 76 85 91 97 103 104 101 102 98 88 70 68 72 72 70 73 73 74 71 66 58 53 53 49 47 42 38 36 34 34 35 36 37
31 30 27 32 37 44 47 45 51 59 69 78 85 89 98 105 106 104 104 102 88 74 83 83 78 73 70 74 75 73 65 59 58 55 52 47 42 39 38 38 39 40 40
40 38 37 36 35 34 41 49 54 55 62 71 78 86 89 97 104 109 108 107 106 96 95 83 79 78 74 72 75 75 68 65 65 60 57 53 49 46 45 43 42 40 41
47 49 49 48 44 43 42 43 49 57 63 67 70 78 86 88 96 103 111 111 109 102 103 91 87 79 76 75 75 77 73 74 70 65 64 59 55 53 50 46 43 42 41
40 49 55 58 57 55 49 47 49 52 60 69 73 76 81 80 90 97 104 114 114 111 109 98 91 95 90 80 78 78 81 78 74 73 73 65 62 57 53 47 43 42 43
61 56 55 56 61 63 62 56 53 51 56 65 72 77 82 82 87 88 99 112 116 113 112 113 100 97 95 88 87 84 83 83 82 81 79 72 68 62 56 49 46 45 45
78 77 74 70 65 64 66 66 63 62 58 60 65 73 80 82 88 89 92 104 108 114 113 112 111 109 108 101 95 92 92 92 89 90 88 80 74 69 62 54 52 49 47
89 91 93 92 89 84 76 72 73 73 73 71 68 70 74 77 83 90 93 97 104 111 113 110 114 113 118 112 112 106 100 93 97 95 93 87 83 77 69 61 57 53 51
95 98 99 101 102 101 101 95 89 89 86 84 84 78 77 80 79 81 92 99 101 109 115 108 108 123 126 129 120 116 105 104 102 101 96 92 88 81 74 68 62 59 56
102 108 112 116 118 116 113 113 113 109 106 103 98 93 86 84 82 84 85 91 100 111 116 110 120 123 120 131 127 121 117 109 110 104 96 99 94 87 79 72 66 64 57
120 124 125 124 125 129 129 126 123 116 117 117 112 106 100 94 89 85 85 90 93 102 119 122 121 119 112 113 119 119 123 116 110 104 92 94 90 92 82 76 72 66 60
122 128 131 133 135 140 134 133 118 106 112 126 125 116 111 106 97 87 84 89 94 100 99 111 122 114 110 103 109 97 109 111 109 109 100 92 88 84 82 78 72 67 61
114 112 119 128 133 140 143 132 105 94 99 115 121 120 117 113 104 90 81 88 92 104 102 96 101 110 110 105 111 112 109 115 114 88 112 96 85 80 65 78 72 67 63
Wind_Direction_850mb
242 243 242 241 240 237 233 233 229 231 234 237 240 243 247 253 259 266 264 263 261 259 257 255 258 259 260 194 214 253 270 295 258 243 248 256 255 247 239 232 235 236 239
247 242 239 240 240 241 238 238 234 233 235 236 239 243 247 251 255 260 266 265 265 263 258 255 251 229 195 194 205 248 281 283 269 260 247 244 234 233 227 223 219 221 225
245 243 241 240 241 241 238 237 234 233 235 236 238 240 242 246 249 253 259 264 264 260 256 249 228 194 206 213 242 250 275 264 262 251 243 239 232 233 225 224 226 224 228
246 246 242 241 243 244 244 240 236 235 236 237 238 239 241 244 247 251 254 257 258 255 254 251 241 206 224 247 230 205 250 274 259 242 237 232 240 245 233 229 230 228 234
250 248 246 243 243 245 245 244 241 238 240 238 239 239 241 243 246 249 252 255 258 260 253 245 231 224 239 257 256 235 256 272 263 254 254 255 259 259 257 252 251 250 248
255 249 247 246 243 243 244 244 243 240 240 240 241 241 243 245 245 248 249 251 251 254 251 244 235 236 241 248 246 244 261 266 262 260 260 263 263 263 261 258 255 253 253
259 255 249 246 246 246 247 246 243 238 236 235 236 241 242 244 246 248 249 251 251 252 252 245 241 236 236 240 242 249 255 261 261 258 260 259 258 254 255 256 255 255 258
257 261 255 250 248 248 246 243 241 238 235 236 234 237 243 246 246 246 248 250 252 250 249 246 244 239 238 242 244 245 248 255 263 264 267 266 263 261 258 257 259 260 262
253 260 264 257 252 252 251 249 245 242 239 236 237 230 213 231 241 243 243 247 250 249 248 246 244 242 240 242 244 247 251 258 264 266 259 251 249 251 257 265 272 275 276
266 263 265 264 259 257 256 254 251 248 245 240 236 234 233 240 224 224 238 241 244 247 247 246 245 244 240 241 244 249 256 261 259 260 259 257 256 258 261 266 272 276 278
288 281 272 266 265 259 259 258 257 252 249 247 244 243 235 235 238 241 241 237 237 242 243 245 245 243 240 241 249 250 253 253 253 252 252 253 254 256 260 263 267 271 273
299 299 289 273 265 264 262 263 261 259 257 254 251 246 245 237 234 233 238 244 247 247 248 248 247 246 243 242 248 250 249 250 250 248 245 246 252 256 261 264 263 265 267
315 313 306 296 283 272 267 265 264 262 260 257 254 254 251 247 249 248 245 245 246 242 242 246 248 247 245 242 245 246 246 248 247 245 245 247 249 252 255 259 262 263 264
322 297 291 298 299 292 279 269 265 264 263 262 259 256 256 253 249 248 248 244 240 244 246 247 250 250 249 245 245 245 243 242 242 241 243 245 248 250 251 253 255 257 261
346 342 319 293 288 292 291 281 272 266 264 265 264 260 256 257 256 252 250 249 243 241 244 246 245 251 250 249 246 244 243 241 240 236 235 239 244 248 251 253 257 259 259
345 341 335 332 324 299 287 287 283 276 269 265 265 265 262 257 255 255 252 250 249 244 250 253 253 255 255 251 247 244 240 241 240 236 233 236 238 242 248 252 255 257 260
337 339 340 338 332 324 316 296 286 285 277 271 266 265 265 264 261 256 254 253 249 244 247 250 253 253 250 247 246 243 238 237 239 235 234 236 237 240 245 250 254 257 259
327 330 331 332 333 332 325 314 305 291 282 278 274 269 267 265 261 260 257 254 252 248 245 242 246 248 247 246 247 244 239 236 237 232 232 237 240 242 245 250 255 257 258
332 331 325 320 320 322 324 325 318 307 296 283 276 272 270 266 263 259 256 254 254 253 249 244 240 243 246 243 242 238 237 236 235 234 233 234 239 241 243 245 248 251 254
322 321 319 317 315 312 311 313 314 314 309 298 289 278 272 266 262 261 257 255 254 254 251 246 240 239 242 242 239 236 233 231 232 233 233 232 237 239 240 242 244 247 250
315 315 314 312 311 309 306 304 303 305 306 305 300 292 284 273 265 261 259 256 253 250 250 244 241 236 236 232 232 234 233 235 235 234 232 231 234 237 236 237 241 243 247
309 308 306 306 305 305 305 303 301 300 298 298 298 297 294 287 278 263 256 253 253 251 246 242 238 237 239 238 237 236 233 229 230 231 230 231 235 236 235 233 237 238 241
301 300 300 300 298 297 296 297 297 296 294 293 292 292 293 290 286 279 265 255 250 249 251 248 243 243 240 241 238 236 234 235 237 238 231 233 232 235 233 234 233 234 234
299 297 295 292 290 289 290 290 290 290 289 288 287 288 288 287 286 281 277 265 255 251 246 244 245 249 246 250 249 248 247 245 238 236 232 229 230 232 230 230 228 229 231
294 293 293 292 291 289 286 285 287 284 282 282 283 283 283 283 281 282 275 271 267 259 252 248 246 244 246 244 249 241 237 231 228 230 227 227 225 225 224 223 224 226 226
286 286 286 285 286 286 286 285 285 282 279 278 278 277 277 277 279 277 270 266 264 265 257 246 242 242 240 240 240 243 240 237 231 225 227 218 219 215 213 220 220 221 222